,,Stat6,,Stat2,,Stat8,,Stat9,,Stat10,,Wind1,,Wind1,
time,status,PA1M_AVG,status,PR1M_SUM,status,RH1M_AVG,status,SR1M_AVG,status,TA1M_AVG,status,W1dAve1m,status,W1sAve1m,
2008-01-19, 00:00:00,VALID,917.254,VALID,0,VALID,100,VALID,0.0339617,VALID,19.6072,VALID,163,VALID,0.776867,
2008-01-19, 00:01:00,VALID,917.257,VALID,0,VALID,100,VALID,0.0169808,VALID,19.6007,VALID,151,VALID,0.130208,
2008-01-19, 00:02:00,VALID,917.264,VALID,0,VALID,100,VALID,0.0339617,VALID,19.6005,VALID,154,VALID,0.25705,
2008-01-19, 00:03:00,VALID,917.28,VALID,0,VALID,100,VALID,0.0169808,VALID,19.6075,VALID,160,VALID,0.0294744,
2008-01-19, 00:04:00,VALID,917.289,VALID,0,VALID,100,VALID,0.0169808,VALID,19.6007,VALID,160,VALID,0,
2008-01-19, 00:05:00,VALID,917.292,VALID,0,VALID,100,VALID,-0.0169808,VALID,19.5972,VALID,160,VALID,0,
2008-01-19, 00:06:00,VALID,917.295,VALID,0,VALID,100,VALID,0,VALID,19.6105,VALID,183,VALID,0.298473,
2008-01-19, 00:07:00,VALID,917.29,VALID,0,VALID,100,VALID,0,VALID,19.6207,VALID,187,VALID,0.360102,
2008-01-19, 00:08:00,VALID,917.273,VALID,0,VALID,100,VALID,0,VALID,19.6142,VALID,187,VALID,0,
2008-01-19, 00:09:00,VALID,917.243,VALID,0,VALID,100,VALID,0,VALID,19.6075,VALID,187,VALID,0,
2008-01-19, 00:10:00,VALID,917.229,VALID,0,VALID,100,VALID,0.0679233,VALID,19.6102,VALID,187,VALID,0,
2008-01-19, 00:11:00,VALID,917.201,VALID,0,VALID,100,VALID,0.0509425,VALID,19.6167,VALID,187,VALID,0,
2008-01-19, 00:12:00,VALID,917.178,VALID,0,VALID,100,VALID,0,VALID,19.6372,VALID,187,VALID,0,
2008-01-19, 00:13:00,VALID,917.17,VALID,0,VALID,100,VALID,-0.0509425,VALID,19.6279,VALID,187,VALID,0,
2008-01-19, 00:14:00,VALID,917.152,VALID,0,VALID,100,VALID,-0.0679233,VALID,19.6247,VALID,185,VALID,0.201637,
2008-01-19, 00:15:00,VALID,917.146,VALID,0,VALID,100,VALID,-0.0679233,VALID,19.6249,VALID,161,VALID,0.439546,
2008-01-19, 00:16:00,VALID,917.127,VALID,0,VALID,100,VALID,-0.101885,VALID,19.6119,VALID,161,VALID,0.597942,
2008-01-19, 00:17:00,VALID,917.119,VALID,0,VALID,100,VALID,-0.0679233,VALID,19.5895,VALID,161,VALID,0.554306,
2008-01-19, 00:18:00,VALID,917.105,VALID,0,VALID,100,VALID,-0.0339617,VALID,19.5793,VALID,161,VALID,0.545117,
2008-01-19, 00:19:00,VALID,917.086,VALID,0,VALID,100,VALID,-0.0849042,VALID,19.5663,VALID,154,VALID,0.710938,
2008-01-19, 00:20:00,VALID,917.069,VALID,0,VALID,100,VALID,-0.0339617,VALID,19.5565,VALID,145,VALID,0.908913,
2008-01-19, 00:21:00,VALID,917.056,VALID,0,VALID,100,VALID,-0.0849042,VALID,19.5598,VALID,143,VALID,1.08803,
2008-01-19, 00:22:00,VALID,917.051,VALID,0,VALID,100,VALID,-0.101885,VALID,19.5468,VALID,136,VALID,0.956577,
2008-01-19, 00:23:00,VALID,917.032,VALID,0,VALID,100,VALID,-0.0679233,VALID,19.5533,VALID,137,VALID,0.968192,
2008-01-19, 00:24:00,VALID,917.032,VALID,0,VALID,100,VALID,-0.101885,VALID,19.5535,VALID,139,VALID,0.804306,
2008-01-19, 00:25:00,VALID,917.022,VALID,0,VALID,100,VALID,-0.0679233,VALID,19.5595,VALID,146,VALID,0.768532,
2008-01-19, 00:26:00,VALID,917.014,VALID,0,VALID,100,VALID,-0.0679233,VALID,19.5598,VALID,155,VALID,0.724144,
2008-01-19, 00:27:00,VALID,917.012,VALID,0,VALID,100,VALID,-0.0169808,VALID,19.5461,VALID,160,VALID,0.887091,
2008-01-19, 00:28:00,VALID,917.011,VALID,0,VALID,100,VALID,0.0169808,VALID,19.5391,VALID,147,VALID,0.707304,
2008-01-19, 00:29:00,VALID,916.986,VALID,0,VALID,100,VALID,0.0169808,VALID,19.5456,VALID,153,VALID,0.757813,
2008-01-19, 00:30:00,VALID,916.97,VALID,0,VALID,100,VALID,0,VALID,19.5491,VALID,142,VALID,0.85061,
2008-01-19, 00:31:00,VALID,916.964,VALID,0,VALID,100,VALID,0,VALID,19.5391,VALID,133,VALID,1.19207,
2008-01-19, 00:32:00,VALID,916.93,VALID,0,VALID,100,VALID,0,VALID,19.559,VALID,133,VALID,0.879439,
2008-01-19, 00:33:00,VALID,916.906,VALID,0,VALID,100,VALID,0.0169808,VALID,19.5421,VALID,133,VALID,0.859375,
2008-01-19, 00:34:00,VALID,916.885,VALID,0,VALID,100,VALID,0,VALID,19.5358,VALID,136,VALID,1.09989,
2008-01-19, 00:35:00,VALID,916.859,VALID,0,VALID,100,VALID,-0.0169808,VALID,19.5521,VALID,140,VALID,1.17397,
2008-01-19, 00:36:00,VALID,916.844,VALID,0,VALID,100,VALID,0,VALID,19.5391,VALID,143,VALID,0.966025,
2008-01-19, 00:37:00,VALID,916.83,VALID,0,VALID,100,VALID,-0.0169808,VALID,19.5423,VALID,133,VALID,0.944382,
2008-01-19, 00:38:00,VALID,916.816,VALID,0,VALID,100,VALID,0,VALID,19.5358,VALID,133,VALID,0.803865,
2008-01-19, 00:39:00,VALID,916.811,VALID,0,VALID,100,VALID,0.0169808,VALID,19.5296,VALID,133,VALID,0.549733,
2008-01-19, 00:40:00,VALID,916.795,VALID,0,VALID,100,VALID,0,VALID,19.5099,VALID,133,VALID,0.497638,
2008-01-19, 00:41:00,VALID,916.805,VALID,0,VALID,100,VALID,0.0509425,VALID,19.4999,VALID,133,VALID,0.0708452,
2008-01-19, 00:42:00,VALID,916.801,VALID,0,VALID,100,VALID,0,VALID,19.4837,VALID,133,VALID,0,
2008-01-19, 00:43:00,VALID,916.795,VALID,0,VALID,100,VALID,0,VALID,19.4872,VALID,132,VALID,0,
2008-01-19, 00:44:00,VALID,916.816,VALID,0,VALID,100,VALID,-0.0169808,VALID,19.4742,VALID,132,VALID,0,
2008-01-19, 00:45:00,VALID,916.818,VALID,0,VALID,100,VALID,0,VALID,19.461,VALID,132,VALID,0,
2008-01-19, 00:46:00,VALID,916.817,VALID,0,VALID,100,VALID,0.0339617,VALID,19.448,VALID,133,VALID,0.0386719,
2008-01-19, 00:47:00,VALID,916.816,VALID,0,VALID,100,VALID,0,VALID,19.4415,VALID,137,VALID,0.915516,
2008-01-19, 00:48:00,VALID,916.796,VALID,0,VALID,100,VALID,0,VALID,19.4612,VALID,140,VALID,0.884527,
2008-01-19, 00:49:00,VALID,916.779,VALID,0,VALID,100,VALID,0,VALID,19.4582,VALID,146,VALID,0.990945,
2008-01-19, 00:50:00,VALID,916.763,VALID,0,VALID,100,VALID,0.0169808,VALID,19.461,VALID,146,VALID,0.790737,
2008-01-19, 00:51:00,VALID,916.738,VALID,0,VALID,100,VALID,0.0169808,VALID,19.4545,VALID,151,VALID,0.620821,
2008-01-19, 00:52:00,VALID,916.725,VALID,0,VALID,100,VALID,0,VALID,19.445,VALID,156,VALID,0.617188,
2008-01-19, 00:53:00,VALID,916.695,VALID,0,VALID,100,VALID,0.0339617,VALID,19.4517,VALID,164,VALID,0.531441,
2008-01-19, 00:54:00,VALID,916.671,VALID,0,VALID,100,VALID,0.0509425,VALID,19.4383,VALID,159,VALID,0.839935,
2008-01-19, 00:55:00,VALID,916.668,VALID,0,VALID,100,VALID,0.0169808,VALID,19.4253,VALID,161,VALID,0.789634,
2008-01-19, 00:56:00,VALID,916.633,VALID,0,VALID,100,VALID,0,VALID,19.4028,VALID,159,VALID,0.903088,
2008-01-19, 00:57:00,VALID,916.619,VALID,0,VALID,100,VALID,0.0169808,VALID,19.3899,VALID,153,VALID,0.747582,
2008-01-19, 00:58:00,VALID,916.586,VALID,0,VALID,100,VALID,0.0339617,VALID,19.3669,VALID,152,VALID,1.05766,
2008-01-19, 00:59:00,VALID,916.578,VALID,0,VALID,100,VALID,0,VALID,19.3669,VALID,150,VALID,0.85245,
2008-01-19, 01:00:00,VALID,916.551,VALID,0,VALID,100,VALID,0,VALID,19.3572,VALID,139,VALID,1.01871,
2008-01-19, 01:01:00,VALID,916.54,VALID,0,VALID,100,VALID,0.0169808,VALID,19.3572,VALID,145,VALID,1.07322,
2008-01-19, 01:02:00,VALID,916.525,VALID,0,VALID,100,VALID,0.0169808,VALID,19.3607,VALID,144,VALID,1.38477,
2008-01-19, 01:03:00,VALID,916.521,VALID,0,VALID,100,VALID,0.0339617,VALID,19.3799,VALID,127,VALID,1.09084,
2008-01-19, 01:04:00,VALID,916.502,VALID,0,VALID,100,VALID,0.0169808,VALID,19.3764,VALID,121,VALID,1.04783,
2008-01-19, 01:05:00,VALID,916.505,VALID,0,VALID,100,VALID,0.0509425,VALID,19.3766,VALID,132,VALID,0.938244,
2008-01-19, 01:06:00,VALID,916.469,VALID,0,VALID,100,VALID,0,VALID,19.3864,VALID,130,VALID,1.10265,
2008-01-19, 01:07:00,VALID,916.458,VALID,0,VALID,100,VALID,0,VALID,19.3929,VALID,117,VALID,0.721484,
2008-01-19, 01:08:00,VALID,916.451,VALID,0,VALID,100,VALID,0,VALID,19.3996,VALID,121,VALID,0.865625,
2008-01-19, 01:09:00,VALID,916.431,VALID,0,VALID,100,VALID,0.0339617,VALID,19.3996,VALID,119,VALID,0.520167,
2008-01-19, 01:10:00,VALID,916.418,VALID,0,VALID,100,VALID,0,VALID,19.3929,VALID,124,VALID,0.574479,
2008-01-19, 01:11:00,VALID,916.395,VALID,0,VALID,100,VALID,0,VALID,19.4093,VALID,142,VALID,0.640244,
2008-01-19, 01:12:00,VALID,916.377,VALID,0,VALID,100,VALID,0.0169808,VALID,19.4191,VALID,147,VALID,0.824405,
2008-01-19, 01:13:00,VALID,916.357,VALID,0,VALID,100,VALID,0.0169808,VALID,19.435,VALID,148,VALID,0.422049,
2008-01-19, 01:14:00,VALID,916.344,VALID,0,VALID,100,VALID,0.0679233,VALID,19.438,VALID,148,VALID,0.292081,
2008-01-19, 01:15:00,VALID,916.336,VALID,0,VALID,100,VALID,0.0339617,VALID,19.4445,VALID,149,VALID,0.335574,
2008-01-19, 01:16:00,VALID,916.302,VALID,0,VALID,100,VALID,0.0509425,VALID,19.4485,VALID,149,VALID,0.0409722,
2008-01-19, 01:17:00,VALID,916.295,VALID,0,VALID,100,VALID,0.0339617,VALID,19.4448,VALID,149,VALID,0.286644,
2008-01-19, 01:18:00,VALID,916.265,VALID,0,VALID,100,VALID,0.0339617,VALID,19.438,VALID,149,VALID,0.0727896,
2008-01-19, 01:19:00,VALID,916.244,VALID,0,VALID,100,VALID,0.101885,VALID,19.4283,VALID,149,VALID,0,
2008-01-19, 01:20:00,VALID,916.231,VALID,0,VALID,100,VALID,0.0169808,VALID,19.4255,VALID,149,VALID,0,
2008-01-19, 01:21:00,VALID,916.233,VALID,0,VALID,100,VALID,0,VALID,19.4026,VALID,149,VALID,0.015439,
2008-01-19, 01:22:00,VALID,916.223,VALID,0,VALID,100,VALID,0.0169808,VALID,19.3989,VALID,149,VALID,0,
2008-01-19, 01:23:00,VALID,916.231,VALID,0,VALID,100,VALID,0.0169808,VALID,19.3929,VALID,149,VALID,0,
2008-01-19, 01:24:00,VALID,916.237,VALID,0,VALID,100,VALID,0.0509425,VALID,19.3831,VALID,149,VALID,0,
2008-01-19, 01:25:00,VALID,916.253,VALID,0,VALID,100,VALID,0.101885,VALID,19.3734,VALID,149,VALID,0,
2008-01-19, 01:26:00,VALID,916.244,VALID,0,VALID,100,VALID,0.0849042,VALID,19.3504,VALID,149,VALID,0,
2008-01-19, 01:27:00,VALID,916.243,VALID,0,VALID,100,VALID,0.0169808,VALID,19.309,VALID,149,VALID,0,
2008-01-19, 01:28:00,VALID,916.237,VALID,0,VALID,100,VALID,-0.0169808,VALID,19.2838,VALID,149,VALID,0,
2008-01-19, 01:29:00,VALID,916.237,VALID,0,VALID,100,VALID,-0.0509425,VALID,19.268,VALID,149,VALID,0,
2008-01-19, 01:30:00,VALID,916.219,VALID,0,VALID,100,VALID,-0.0169808,VALID,19.2543,VALID,149,VALID,0,
2008-01-19, 01:31:00,VALID,916.197,VALID,0,VALID,100,VALID,-0.0339617,VALID,19.2606,VALID,149,VALID,0,
2008-01-19, 01:32:00,VALID,916.183,VALID,0,VALID,100,VALID,-0.0679233,VALID,19.2546,VALID,149,VALID,0,
2008-01-19, 01:33:00,VALID,916.158,VALID,0,VALID,100,VALID,-0.0169808,VALID,19.1897,VALID,149,VALID,0,
2008-01-19, 01:34:00,VALID,916.125,VALID,0,VALID,100,VALID,-0.0339617,VALID,19.1702,VALID,149,VALID,0,
2008-01-19, 01:35:00,VALID,916.088,VALID,0,VALID,100,VALID,-0.0509425,VALID,19.1728,VALID,149,VALID,0.412157,
2008-01-19, 01:36:00,VALID,916.069,VALID,0,VALID,100,VALID,-0.0509425,VALID,19.1997,VALID,149,VALID,0.599746,
2008-01-19, 01:37:00,VALID,916.06,VALID,0,VALID,100,VALID,-0.0339617,VALID,19.2256,VALID,134,VALID,0.630469,
2008-01-19, 01:38:00,VALID,916.041,VALID,0,VALID,100,VALID,-0.0339617,VALID,19.2576,VALID,120,VALID,0.652902,
2008-01-19, 01:39:00,VALID,916.022,VALID,0,VALID,100,VALID,-0.0509425,VALID,19.2548,VALID,120,VALID,0.679688,
2008-01-19, 01:40:00,VALID,916.022,VALID,0,VALID,100,VALID,-0.0339617,VALID,19.2611,VALID,123,VALID,0.74564,
2008-01-19, 01:41:00,VALID,916.021,VALID,0,VALID,100,VALID,-0.0339617,VALID,19.2773,VALID,124,VALID,0.752725,
2008-01-19, 01:42:00,VALID,916.003,VALID,0,VALID,100,VALID,-0.0849042,VALID,19.297,VALID,124,VALID,0.62138,
2008-01-19, 01:43:00,VALID,915.993,VALID,0,VALID,100,VALID,-0.0509425,VALID,19.3097,VALID,127,VALID,0.798651,
2008-01-19, 01:44:00,VALID,915.985,VALID,0,VALID,100,VALID,-0.0849042,VALID,19.3227,VALID,132,VALID,0.874092,
2008-01-19, 01:45:00,VALID,915.967,VALID,0,VALID,100,VALID,-0.0509425,VALID,19.32,VALID,134,VALID,0.699219,
2008-01-19, 01:46:00,VALID,915.952,VALID,0,VALID,100,VALID,-0.0509425,VALID,19.3032,VALID,132,VALID,0.910866,
2008-01-19, 01:47:00,VALID,915.946,VALID,0,VALID,100,VALID,-0.0509425,VALID,19.274,VALID,130,VALID,0.934659,
2008-01-19, 01:48:00,VALID,915.937,VALID,0,VALID,100,VALID,-0.0509425,VALID,19.2678,VALID,128,VALID,0.645241,
2008-01-19, 01:49:00,VALID,915.914,VALID,0,VALID,100,VALID,-0.0509425,VALID,19.2548,VALID,128,VALID,0.639205,
2008-01-19, 01:50:00,VALID,915.913,VALID,0,VALID,100,VALID,-0.0339617,VALID,19.2676,VALID,127,VALID,0.668341,
2008-01-19, 01:51:00,VALID,915.905,VALID,0,VALID,100,VALID,-0.0169808,VALID,19.2516,VALID,127,VALID,0.442294,
2008-01-19, 01:52:00,VALID,915.909,VALID,0,VALID,100,VALID,-0.0509425,VALID,19.2124,VALID,127,VALID,0.509301,
2008-01-19, 01:53:00,VALID,915.886,VALID,0,VALID,100,VALID,-0.0509425,VALID,19.2094,VALID,123,VALID,0.786044,
2008-01-19, 01:54:00,VALID,915.858,VALID,0,VALID,100,VALID,-0.0339617,VALID,19.1899,VALID,113,VALID,0.625679,
2008-01-19, 01:55:00,VALID,915.856,VALID,0,VALID,100,VALID,-0.0679233,VALID,19.1575,VALID,111,VALID,0.821075,
2008-01-19, 01:56:00,VALID,915.85,VALID,0,VALID,100,VALID,-0.0339617,VALID,19.1348,VALID,106,VALID,0.743278,
2008-01-19, 01:57:00,VALID,915.836,VALID,0,VALID,100,VALID,-0.0509425,VALID,19.0986,VALID,103,VALID,0.904797,
2008-01-19, 01:58:00,VALID,915.828,VALID,0,VALID,100,VALID,-0.0339617,VALID,19.072,VALID,103,VALID,0.911458,
2008-01-19, 01:59:00,VALID,915.823,VALID,0,VALID,100,VALID,-0.0339617,VALID,19.0365,VALID,98,VALID,0.7766,
2008-01-19, 02:00:00,VALID,915.812,VALID,0,VALID,100,VALID,-0.0169808,VALID,19.0008,VALID,96,VALID,0.563408,
2008-01-19, 02:01:00,VALID,915.806,VALID,0,VALID,100,VALID,-0.0509425,VALID,18.9846,VALID,107,VALID,0.68388,
2008-01-19, 02:02:00,VALID,915.784,VALID,0,VALID,100,VALID,-0.0509425,VALID,18.9853,VALID,117,VALID,0.668255,
2008-01-19, 02:03:00,VALID,915.786,VALID,0,VALID,100,VALID,-0.0509425,VALID,18.9851,VALID,126,VALID,0.568537,
2008-01-19, 02:04:00,VALID,915.753,VALID,0,VALID,100,VALID,-0.0679233,VALID,18.9791,VALID,122,VALID,0.730183,
2008-01-19, 02:05:00,VALID,915.749,VALID,0,VALID,100,VALID,-0.0509425,VALID,18.9758,VALID,124,VALID,0.803013,
2008-01-19, 02:06:00,VALID,915.739,VALID,0,VALID,100,VALID,-0.0509425,VALID,19.008,VALID,132,VALID,0.660256,
2008-01-19, 02:07:00,VALID,915.722,VALID,0,VALID,100,VALID,-0.0339617,VALID,19.011,VALID,143,VALID,0.738376,
2008-01-19, 02:08:00,VALID,915.713,VALID,0,VALID,100,VALID,-0.0169808,VALID,18.9754,VALID,163,VALID,0.936384,
2008-01-19, 02:09:00,VALID,915.695,VALID,0,VALID,100,VALID,-0.0679233,VALID,18.9564,VALID,157,VALID,1.03264,
2008-01-19, 02:10:00,VALID,915.674,VALID,0,VALID,100,VALID,-0.0509425,VALID,18.9654,VALID,150,VALID,0.996626,
2008-01-19, 02:11:00,VALID,915.653,VALID,0,VALID,100,VALID,-0.0509425,VALID,18.9686,VALID,144,VALID,0.945131,
2008-01-19, 02:12:00,VALID,915.62,VALID,0,VALID,100,VALID,-0.0509425,VALID,18.9784,VALID,130,VALID,0.924479,
2008-01-19, 02:13:00,VALID,915.598,VALID,0,VALID,100,VALID,-0.0849042,VALID,18.9432,VALID,127,VALID,0.659489,
2008-01-19, 02:14:00,VALID,915.586,VALID,0,VALID,100,VALID,-0.0169808,VALID,18.9367,VALID,121,VALID,0.842685,
2008-01-19, 02:15:00,VALID,915.568,VALID,0,VALID,100,VALID,-0.0849042,VALID,18.9269,VALID,123,VALID,0.906605,
2008-01-19, 02:16:00,VALID,915.566,VALID,0,VALID,100,VALID,-0.0339617,VALID,18.9432,VALID,126,VALID,0.811738,
2008-01-19, 02:17:00,VALID,915.546,VALID,0,VALID,100,VALID,-0.0849042,VALID,18.9464,VALID,132,VALID,0.883523,
2008-01-19, 02:18:00,VALID,915.538,VALID,0,VALID,100,VALID,-0.101885,VALID,18.9788,VALID,135,VALID,1.17223,
2008-01-19, 02:19:00,VALID,915.522,VALID,0,VALID,100,VALID,-0.0169808,VALID,18.9983,VALID,132,VALID,0.813072,
2008-01-19, 02:20:00,VALID,915.518,VALID,0,VALID,100,VALID,-0.0679233,VALID,18.9986,VALID,134,VALID,0.496626,
2008-01-19, 02:21:00,VALID,915.494,VALID,0,VALID,100,VALID,-0.0679233,VALID,18.9879,VALID,129,VALID,0.902604,
2008-01-19, 02:22:00,VALID,915.488,VALID,0,VALID,100,VALID,-0.0339617,VALID,19.0078,VALID,127,VALID,0.631541,
2008-01-19, 02:23:00,VALID,915.47,VALID,0,VALID,100,VALID,-0.0339617,VALID,19.0043,VALID,148,VALID,0.70434,
2008-01-19, 02:24:00,VALID,915.466,VALID,0,VALID,100,VALID,-0.0509425,VALID,19.0043,VALID,153,VALID,0.528906,
2008-01-19, 02:25:00,VALID,915.458,VALID,0,VALID,100,VALID,-0.0509425,VALID,19.0013,VALID,152,VALID,0.356889,
2008-01-19, 02:26:00,VALID,915.465,VALID,0,VALID,100,VALID,-0.0509425,VALID,18.9983,VALID,152,VALID,0.420759,
2008-01-19, 02:27:00,VALID,915.456,VALID,0,VALID,100,VALID,-0.0849042,VALID,18.9853,VALID,152,VALID,0.436756,
2008-01-19, 02:28:00,VALID,915.445,VALID,0,VALID,100,VALID,-0.0679233,VALID,18.9821,VALID,155,VALID,0.557173,
2008-01-19, 02:29:00,VALID,915.452,VALID,0,VALID,100,VALID,-0.0509425,VALID,18.9918,VALID,156,VALID,0.601926,
2008-01-19, 02:30:00,VALID,915.448,VALID,0,VALID,100,VALID,0,VALID,18.9941,VALID,156,VALID,0.611374,
2008-01-19, 02:31:00,VALID,915.448,VALID,0,VALID,100,VALID,-0.0169808,VALID,18.9909,VALID,157,VALID,0.802326,
2008-01-19, 02:32:00,VALID,915.458,VALID,0,VALID,100,VALID,-0.0169808,VALID,18.9851,VALID,165,VALID,0.825639,
2008-01-19, 02:33:00,VALID,915.464,VALID,0,VALID,100,VALID,0,VALID,18.9716,VALID,166,VALID,0.908668,
2008-01-19, 02:34:00,VALID,915.444,VALID,0,VALID,100,VALID,-0.0339617,VALID,18.9879,VALID,163,VALID,0.873094,
2008-01-19, 02:35:00,VALID,915.432,VALID,0,VALID,100,VALID,-0.0339617,VALID,18.9779,VALID,169,VALID,1.0814,
2008-01-19, 02:36:00,VALID,915.429,VALID,0,VALID,100,VALID,-0.0509425,VALID,18.9751,VALID,165,VALID,1.20816,
2008-01-19, 02:37:00,VALID,915.402,VALID,0,VALID,100,VALID,0,VALID,18.9948,VALID,162,VALID,1.00419,
2008-01-19, 02:38:00,VALID,915.383,VALID,0,VALID,100,VALID,-0.0169808,VALID,19.0071,VALID,139,VALID,0.548633,
2008-01-19, 02:39:00,VALID,915.366,VALID,0,VALID,100,VALID,-0.0169808,VALID,19.0008,VALID,145,VALID,0.373326,
2008-01-19, 02:40:00,VALID,915.347,VALID,0,VALID,100,VALID,0,VALID,18.9879,VALID,139,VALID,0.778988,
2008-01-19, 02:41:00,VALID,915.333,VALID,0,VALID,100,VALID,-0.0169808,VALID,18.9721,VALID,147,VALID,0.875363,
2008-01-19, 02:42:00,VALID,915.309,VALID,0,VALID,100,VALID,-0.0339617,VALID,18.9818,VALID,139,VALID,0.654797,
2008-01-19, 02:43:00,VALID,915.304,VALID,0,VALID,100,VALID,-0.0169808,VALID,18.9649,VALID,140,VALID,0.827217,
2008-01-19, 02:44:00,VALID,915.285,VALID,0,VALID,100,VALID,-0.0169808,VALID,18.9913,VALID,143,VALID,0.913336,
2008-01-19, 02:45:00,VALID,915.277,VALID,0,VALID,100,VALID,-0.0169808,VALID,18.9976,VALID,136,VALID,0.994731,
2008-01-19, 02:46:00,VALID,915.26,VALID,0,VALID,100,VALID,-0.0169808,VALID,19.0168,VALID,132,VALID,0.976376,
2008-01-19, 02:47:00,VALID,915.246,VALID,0,VALID,100,VALID,-0.0169808,VALID,19.0268,VALID,146,VALID,0.751524,
2008-01-19, 02:48:00,VALID,915.229,VALID,0,VALID,100,VALID,0.0169808,VALID,19.0398,VALID,151,VALID,0.658482,
2008-01-19, 02:49:00,VALID,915.216,VALID,0,VALID,100,VALID,0,VALID,19.053,VALID,144,VALID,0.790931,
2008-01-19, 02:50:00,VALID,915.227,VALID,0,VALID,100,VALID,-0.0169808,VALID,19.0655,VALID,137,VALID,0.836119,
2008-01-19, 02:51:00,VALID,915.207,VALID,0,VALID,100,VALID,-0.0339617,VALID,19.0757,VALID,137,VALID,0.646076,
2008-01-19, 02:52:00,VALID,915.197,VALID,0,VALID,100,VALID,-0.0339617,VALID,19.0857,VALID,137,VALID,0.481148,
2008-01-19, 02:53:00,VALID,915.198,VALID,0,VALID,100,VALID,0,VALID,19.0852,VALID,137,VALID,0.602289,
2008-01-19, 02:54:00,VALID,915.188,VALID,0,VALID,100,VALID,0,VALID,19.0989,VALID,139,VALID,0.516016,
2008-01-19, 02:55:00,VALID,915.183,VALID,0,VALID,100,VALID,-0.0169808,VALID,19.1014,VALID,152,VALID,0.710029,
2008-01-19, 02:56:00,VALID,915.191,VALID,0,VALID,100,VALID,-0.0339617,VALID,19.1084,VALID,154,VALID,0.829427,
2008-01-19, 02:57:00,VALID,915.184,VALID,0,VALID,100,VALID,-0.0849042,VALID,19.1021,VALID,167,VALID,0.507994,
2008-01-19, 02:58:00,VALID,915.183,VALID,0,VALID,100,VALID,-0.101885,VALID,19.1058,VALID,147,VALID,0.496626,
2008-01-19, 02:59:00,VALID,915.198,VALID,0,VALID,100,VALID,-0.101885,VALID,19.1088,VALID,149,VALID,0.587891,
2008-01-19, 03:00:00,VALID,915.185,VALID,0,VALID,100,VALID,-0.0679233,VALID,19.1123,VALID,168,VALID,0.551136,
2008-01-19, 03:01:00,VALID,915.173,VALID,0,VALID,100,VALID,-0.0849042,VALID,19.1153,VALID,175,VALID,0.672433,
2008-01-19, 03:02:00,VALID,915.186,VALID,0,VALID,100,VALID,-0.0849042,VALID,19.1221,VALID,157,VALID,0.543064,
2008-01-19, 03:03:00,VALID,915.18,VALID,0,VALID,100,VALID,-0.0849042,VALID,19.1151,VALID,173,VALID,0.638445,
2008-01-19, 03:04:00,VALID,915.179,VALID,0,VALID,100,VALID,-0.0849042,VALID,19.1153,VALID,172,VALID,0.491655,
2008-01-19, 03:05:00,VALID,915.183,VALID,0,VALID,100,VALID,-0.101885,VALID,19.1121,VALID,168,VALID,0.643483,
2008-01-19, 03:06:00,VALID,915.202,VALID,0,VALID,100,VALID,-0.101885,VALID,19.1051,VALID,166,VALID,0.522507,
2008-01-19, 03:07:00,VALID,915.185,VALID,0,VALID,100,VALID,-0.101885,VALID,19.1188,VALID,166,VALID,0.337798,
2008-01-19, 03:08:00,VALID,915.192,VALID,0,VALID,100,VALID,-0.101885,VALID,19.1186,VALID,166,VALID,0.464658,
2008-01-19, 03:09:00,VALID,915.188,VALID,0,VALID,100,VALID,-0.0679233,VALID,19.1088,VALID,163,VALID,0.585227,
2008-01-19, 03:10:00,VALID,915.19,VALID,0,VALID,100,VALID,-0.101885,VALID,19.1024,VALID,163,VALID,0.519792,
2008-01-19, 03:11:00,VALID,915.188,VALID,0,VALID,100,VALID,-0.118866,VALID,19.0891,VALID,162,VALID,0.390439,
2008-01-19, 03:12:00,VALID,915.189,VALID,0,VALID,100,VALID,-0.0849042,VALID,19.0926,VALID,162,VALID,0.605824,
2008-01-19, 03:13:00,VALID,915.168,VALID,0,VALID,100,VALID,-0.0849042,VALID,19.0796,VALID,162,VALID,0.181818,
2008-01-19, 03:14:00,VALID,915.169,VALID,0,VALID,100,VALID,-0.101885,VALID,19.0729,VALID,162,VALID,0.0541295,
2008-01-19, 03:15:00,VALID,915.168,VALID,0,VALID,100,VALID,-0.0849042,VALID,19.0794,VALID,143,VALID,0.471413,
2008-01-19, 03:16:00,VALID,915.152,VALID,0,VALID,100,VALID,-0.101885,VALID,19.0799,VALID,135,VALID,0.579127,
2008-01-19, 03:17:01,VALID,915.161,VALID,0,VALID,100,VALID,-0.118866,VALID,19.0896,VALID,130,VALID,0.712695,
2008-01-19, 03:18:01,VALID,915.183,VALID,0,VALID,100,VALID,-0.101885,VALID,19.1186,VALID,127,VALID,0.76617,
2008-01-19, 03:19:00,VALID,915.184,VALID,0,VALID,100,VALID,-0.101885,VALID,19.1218,VALID,120,VALID,0.615785,
2008-01-19, 03:20:01,VALID,915.19,VALID,0,VALID,100,VALID,-0.118866,VALID,19.1158,VALID,120,VALID,0.594658,
2008-01-19, 03:21:00,VALID,915.194,VALID,0,VALID,100,VALID,-0.101885,VALID,19.1024,VALID,117,VALID,0.91441,
2008-01-19, 03:22:00,VALID,915.173,VALID,0,VALID,100,VALID,-0.101885,VALID,19.1024,VALID,113,VALID,0.747638,
2008-01-19, 03:23:00,VALID,915.165,VALID,0,VALID,100,VALID,-0.0849042,VALID,19.0894,VALID,113,VALID,0.636533,
2008-01-19, 03:24:00,VALID,915.171,VALID,0,VALID,100,VALID,-0.101885,VALID,19.0762,VALID,113,VALID,0.715588,
2008-01-19, 03:25:00,VALID,915.166,VALID,0,VALID,100,VALID,-0.0679233,VALID,19.047,VALID,113,VALID,0.685014,
2008-01-19, 03:26:00,VALID,915.174,VALID,0,VALID,100,VALID,-0.0849042,VALID,19.0442,VALID,117,VALID,0.699396,
2008-01-19, 03:27:00,VALID,915.179,VALID,0,VALID,100,VALID,-0.0849042,VALID,19.0273,VALID,123,VALID,0.771484,
2008-01-19, 03:28:00,VALID,915.196,VALID,0,VALID,100,VALID,-0.0169808,VALID,19.0198,VALID,126,VALID,0.620276,
2008-01-19, 03:29:01,VALID,915.228,VALID,0,VALID,100,VALID,0,VALID,18.9971,VALID,127,VALID,0.315407,
2008-01-19, 03:30:00,VALID,915.255,VALID,0,VALID,100,VALID,-0.0169808,VALID,18.9744,VALID,149,VALID,0.766352,
2008-01-19, 03:31:00,VALID,915.258,VALID,0,VALID,100,VALID,-0.0169808,VALID,18.9424,VALID,155,VALID,0.988477,
2008-01-19, 03:32:01,VALID,915.245,VALID,0,VALID,100,VALID,-0.0339617,VALID,18.9195,VALID,157,VALID,0.881214,
2008-01-19, 03:33:00,VALID,915.243,VALID,0,VALID,100,VALID,0,VALID,18.9035,VALID,157,VALID,1.28434,
2008-01-19, 03:34:01,VALID,915.225,VALID,0,VALID,100,VALID,0,VALID,18.8838,VALID,157,VALID,1.05105,
2008-01-19, 03:35:00,VALID,915.217,VALID,0,VALID,100,VALID,0.0169808,VALID,18.8611,VALID,136,VALID,0.754383,
2008-01-19, 03:36:00,VALID,915.203,VALID,0,VALID,100,VALID,0,VALID,18.8287,VALID,134,VALID,0.96875,
2008-01-19, 03:37:00,VALID,915.194,VALID,0,VALID,100,VALID,-0.0339617,VALID,18.8254,VALID,142,VALID,0.603561,
2008-01-19, 03:38:00,VALID,915.188,VALID,0,VALID,100,VALID,0,VALID,18.8252,VALID,136,VALID,0.911882,
2008-01-19, 03:39:01,VALID,915.175,VALID,0,VALID,100,VALID,0,VALID,18.8187,VALID,138,VALID,0.796875,